Regional Weather Roundup
Issued by NWS

Home | Current Version | Previous Version | Graphics & Text | Print | Product List | Glossary On
Versions: 1 2 3 4 5 6 7 8 9 10 11 12 13 14 15 16 17 18 19 20 21 22 23 24 25 26 27
000
ASUS45 KBOU 181407
RWRCO

WEATHER ROUNDUP FOR COLORADO
NATIONAL WEATHER SERVICE DENVER/BOULDER CO
800 AM MDT WED OCT 18 2017

NOTE: "FAIR" INDICATES FEW OR NO CLOUDS BELOW 12000 FEET WITH NO
SIGNIFICANT WEATHER AND/OR OBSTRUCTIONS TO VISIBILITY.

COZ001>005-013-030-031-181500-
...NORTHWEST COLORADO...

CITY           SKY/WX    TMP DP  RH WIND       PRES   REMARKS
CRAIG          FAIR      23  17  78 SW3       30.28R
HAYDEN         FAIR      33  15  47 SE12      30.30R WCI  24
MEEKER         FAIR      31  15  52 VRB3      30.28R
RABBIT EARS PA FAIR      36   0  21 W6        30.42S
STEAMBOAT SPGS FAIR      25  16  68 NE3       30.32R
WALDEN         FAIR      32   7  34 NE6       30.33R WCI  26
$$

COZ006>008-011-181500-
...WEST CENTRAL VALLEYS...

CITY           SKY/WX    TMP DP  RH WIND       PRES   REMARKS
GRAND JUNCTION FAIR      39  16  39 E8        30.22R
MONTROSE       FAIR      32  16  51 SE7       30.29R WCI  26
EAGLE          FAIR      25  17  72 SW5       30.37R WCI  19
RIFLE          FAIR      31  18  58 CALM      30.28R
DELTA          FAIR      33  14  46 E3        30.27S
NUCLA          FAIR      36   5  27 SE5       30.31R
$$

COZ017>023-064>068-181500-
...SOUTHWEST COLORADO...

CITY           SKY/WX    TMP DP  RH WIND       PRES   REMARKS
DURANGO        FAIR      29  16  58 N5        30.29R WCI  24
CORTEZ         FAIR      30  17  58 E3        30.27R
PAGOSA SPRINGS FAIR      31  16  53 CALM      30.34R
TELLURIDE      NOT AVBL
WOLF CREEK PAS FAIR      37  -4  17 CALM      30.56R
$$

COZ009-010-012-014-032>034-037-058>063-181500-
...CENTRAL COLORADO...

CITY           SKY/WX    TMP DP  RH WIND       PRES   REMARKS
ASPEN          FAIR      34  11  38 SW8       30.32R WCI  27
BUENA VISTA    FAIR      32  13  46 CALM      30.34R
COPPER MTN     FAIR      36  -8  15 W14       30.49S
BERTHOUD PASS  FAIR      30  21  69 NW32G39   30.47R WCI  15
COTTONWOOD PAS FAIR      48  -6  10 W10       30.40R
GUNNISON       FAIR      18  10  71 CALM      30.42R
KREMMLING      FAIR      23  18  80 CALM      30.38R
LEADVILLE      FAIR      32  -1  24 NE9       30.39R WCI  24
SALIDA         NOT AVBL
SUNLIGHT       FAIR      36   3  25 SW7       30.48R
WILKERSON PASS FAIR      41  -8  12 N6        30.49R
$$

COZ069>075-181500-
...SAN LUIS VALLEY/SANGRE DE CRISTO MOUNTAINS...

CITY           SKY/WX    TMP DP  RH WIND       PRES   REMARKS
ALAMOSA        FAIR      26  18  71 CALM      30.34R
DEL NORTE      FAIR      37  13  37 W13       30.35R
LA VETA PASS   FAIR      39  10  30 MISG      30.51S
SAGUACHE       FAIR      32  10  40 CALM      30.35R
$$

COZ035-036-038>040-181500-
...NORTHERN COLORADO FRONT RANGE...

CITY           SKY/WX    TMP DP  RH WIND       PRES   REMARKS
DENVER INTL AP MOCLDY    55  17  22 SW12      30.11R
DMNS CITY PARK   N/A     55  15  20 SE7G14    30.12R
AURORA         MOCLDY    52  19  26 S9        30.13R
FRONT RANGE AP MOCLDY    57  18  21 SW7       30.13R
ERIE MUNI ARPT FAIR      49  22  34 CALM      30.15R
BOULDER MUN AP FAIR      66   9  10 NW9G17    30.10R
CENTENNIAL     MOCLDY    57  10  15 SW10      30.15R
BROOMFIELD     MOCLDY    59  10  14 SW3       30.13R
FORT COLLINS   FAIR      54  23  30 CALM      30.12R
LONGMONT       FAIR      51  26  37 NW5       30.12R HAZE
$$

COZ041-046-047-076>085-087-088-181500-
...PIKES PEAK/PALMER DIVIDE AND SOUTHERN FOOTHILLS...

CITY           SKY/WX    TMP DP  RH WIND       PRES   REMARKS
COLO. SPRINGS  MOCLDY    59  15  18 NW13      30.17R
A. F. ACADEMY  FAIR      52  12  20 N3        30.18R
SCHRIEVER AFB  FAIR      59  12  15 NW13      30.16R
CHEYENNE MTN   MOCLDY    61   7  12 NW13      30.15R
ELLICOTT       FAIR     N/A N/A N/A N5        30.14R
FALCON         FAIR      55  10  16 NW7       30.21R
FORT CARSON    FAIR      49  25  38 NW5       30.13R
LIMON          FAIR      38  31  76 N3        30.13R
MONUMENT HILL  NOT AVBL
CANON CITY     CLEAR     57  12  17 W18G24    30.14R
WALSENBURG     FAIR      63  16  16 W16G24    30.17R
TRINIDAD       FAIR      44  22  41 NW10      30.16R
$$

COZ042>045-048>051-090-091-181500-
...NORTHEAST COLORADO...

CITY           SKY/WX    TMP DP  RH WIND       PRES   REMARKS
GREELEY ARPT   FAIR      38  34  85 N5        30.12R
AKRON          FAIR      48  25  40 W9        30.08R
BURLINGTON     FAIR      51  33  50 NW13      30.06R
WRAY           FAIR      46  30  53 W9        30.03R
YUMA           NOT AVBL
STERLING       FAIR      36  32  87 S6        30.06R
HOLYOKE        FAIR      48  32  53 W8        30.01R
FORT MORGAN    FAIR      41  29  61 W8        30.10R
$$

COZ086-089-092>099-181500-
...SOUTHEAST COLORADO...

CITY           SKY/WX    TMP DP  RH WIND       PRES   REMARKS
PUEBLO         FAIR      46  27  47 SW10      30.09R
LA JUNTA       FAIR      44  29  55 W6        30.08R
LAMAR          FLURRIES  40  33  76 SW6       30.04R
SPRINGFIELD      N/A     50  30  46 NW10      30.06R
$$




USA.gov is the U.S. government's official web portal to all federal, state and local government web resources and services.